Weather reports worldwide

Advertisment
Trier-Petrisberg, Germany (10609): temperature & dewpoint: 12.01.2018 07:00:00 - 18.01.2018 07:00:00 (CET)Trier-Petrisberg, Germany (10609): temperature 5cm & temperature -5cm: 12.01.2018 07:00:00 - 18.01.2018 07:00:00 (CET)Trier-Petrisberg, Germany (10609): temperature -20cm & temperature -100cm: 12.01.2018 07:00:00 - 18.01.2018 07:00:00 (CET)Trier-Petrisberg, Germany (10609): wind speed & gusts: 12.01.2018 07:00:00 - 18.01.2018 07:00:00 (CET)Trier-Petrisberg, Germany (10609): wind direction: 12.01.2018 07:00:00 - 18.01.2018 07:00:00 (CET)Trier-Petrisberg, Germany (10609): reduced air pressure: 12.01.2018 07:00:00 - 18.01.2018 07:00:00 (CET)Trier-Petrisberg, Germany (10609): visibility: 12.01.2018 07:00:00 - 18.01.2018 07:00:00 (CET)Trier-Petrisberg, Germany (10609): sunshine duration: 12.01.2018 07:00:00 - 18.01.2018 07:00:00 (CET)Trier-Petrisberg, Germany (10609): precipitation: 12.01.2018 07:00:00 - 18.01.2018 07:00:00 (CET)
Date & Time tt [°C] td [°C] tt 5cm [°C] tt -5cm [°C] tt -20cm [°C] tt -100cm [°C] ff [km/h] ff [kn] fx [km/h] fx [kn] dd ppp [hPa] vv [km] sd [min] rr [mm]
18.01.2018 07:00:00 2,4 1,3 2,1 2,4 3,4 6,1 45 25 67 36 SSW 1002,7 26 0 0,3
18.01.2018 06:00:00 2,3 1,3 2,1 2,4 3,4 6,1 40 21 65 35 SSW 1003,5 28 0 1,3
18.01.2018 05:00:00 3,0 1,8 2,6 2,4 3,3 6,1 40 21 59 32 SSW 1005,5 14 0 0,6
18.01.2018 04:00:00 3,6 1,6 2,9 2,3 3,3 6,1 38 20 56 31 SW 1007,7 25 0 0,0
18.01.2018 03:00:00 3,6 1,5 2,8 2,1 3,3 6,1 32 17 54 29 SW 1009,3 65 0 0,0
18.01.2018 02:00:00 2,6 1,7 2,3 1,8 3,3 6,1 21 11 34 19 SW 1010,9 37 0 0,2
18.01.2018 01:00:00 2,2 0,9 1,7 1,5 3,4 6,1 22 12 34 18 SW 1012,0 48 0 0,1
18.01.2018 00:00:00 1,6 0,7 1,0 1,2 3,4 6,1 19 10 51 28 SW 1012,6 23 0 0,1
17.01.2018 23:00:00 2,3 -0,1 1,1 1,2 3,5 6,1 24 13 45 24 WSW 1012,5 70 0 0,0
17.01.2018 22:00:00 2,4 -0,3 1,2 1,4 3,6 6,1 23 12 42 23 WSW 1012,2 70 0 0,0
17.01.2018 21:00:00 2,8 -0,8 1,1 1,4 3,7 6,1 23 12 35 19 WSW 1012,3 58 0 0,0
17.01.2018 20:00:00 2,9 -1,0 1,7 1,7 3,8 6,1 20 11 50 27 W 1011,9 64 0 0,0
17.01.2018 19:00:00 3,7 -2,1 2,4 1,7 3,8 6,1 21 12 41 22 W 1011,3 70 0 0,0
17.01.2018 18:00:00 3,5 -1,9 1,9 2,1 3,9 6,2 23 12 49 27 W 1010,8 70 0 0,0
17.01.2018 17:00:00 3,6 -1,7 2,4 2,8 3,9 6,2 26 14 48 26 W 1009,9 70 19 0,0
17.01.2018 16:00:00 3,3 -0,8 2,7 3,1 3,8 6,2 22 12 60 33 W 1009,0 70 21 0,0
17.01.2018 15:00:00 3,7 -1,4 3,3 3,8 3,7 6,2 32 17 69 37 W 1008,3 51 9 0,0
17.01.2018 14:00:00 3,9 -1,7 4,7 3,7 3,6 6,2 31 17 57 31 W 1007,3 70 25 0,0
17.01.2018 13:00:00 3,3 -2,0 3,5 3,4 3,5 6,2 33 18 59 32 W 1006,8 70 21 0,0
17.01.2018 12:00:00 2,6 -1,5 3,0 2,5 3,5 6,2 28 15 61 33 WSW 1006,7 70 34 0,0
17.01.2018 11:00:00 2,6 -3,0 2,9 1,5 3,6 6,2 24 13 46 25 W 1005,6 70 22 0,0
17.01.2018 10:00:00 1,9 -2,0 0,9 1,2 3,7 6,2 22 12 58 31 W 1004,3 70 6 0,1
17.01.2018 09:00:00 1,7 -2,1 0,5 1,2 3,8 6,2 23 12 39 21 WSW 1002,9 70 0 0,0
17.01.2018 08:00:00 1,8 -1,8 0,2 1,4 3,9 6,2 22 12 46 25 W 1001,2 70 0 0,0
17.01.2018 07:00:00 1,7 -1,1 0,4 1,7 4,0 6,2 28 15 50 27 WSW 999,9 70 0 0,1
17.01.2018 06:00:00 1,1 0,0 0,4 2,0 4,0 6,2 27 15 57 31 WSW 999,1 70 0 0,1
17.01.2018 05:00:00 2,3 0,0 1,3 2,0 4,1 6,2 22 12 36 19 WSW 998,4 70 0 0,0
17.01.2018 04:00:00 2,2 0,3 0,7 2,5 4,2 6,2 21 11 35 19 WSW 997,8 70 0 0,0
17.01.2018 03:00:00 1,9 0,7 1,6 2,6 4,2 6,2 16 9 32 17 WSW 997,5 70 0 0,0
17.01.2018 02:00:00 1,6 0,7 1,2 2,6 4,3 6,2 22 12 37 20 WSW 997,1 70 0 0,8
17.01.2018 01:00:00 1,2 0,5 1,3 2,8 4,4 6,2 16 9 35 19 SSW 997,9 70 0 0,8
17.01.2018 00:00:00 2,1 1,1 1,9 3,0 4,4 6,2 16 9 44 24 WSW 997,8 70 0 0,8
16.01.2018 23:00:00 3,6 1,9 3,2 2,9 4,5 6,2 17 9 35 19 SW 998,0 70 0 0,0
16.01.2018 22:00:00 3,4 1,1 3,0 2,7 4,6 6,2 22 12 36 20 SW 999,0 70 0 0,0
16.01.2018 21:00:00 3,0 0,1 1,7 2,6 4,7 6,2 24 13 36 19 SW 999,3 70 0 0,0
16.01.2018 20:00:00 3,4 0,0 1,7 3,1 4,8 6,2 21 11 38 21 WSW 999,0 70 0 0,0
16.01.2018 19:00:00 3,8 0,0 2,2 3,8 4,9 6,2 24 13 47 26 SW 998,7 70 0 0,0
16.01.2018 18:00:00 5,2 0,0 4,6 4,3 4,9 6,2 28 15 48 26 WSW 998,6 70 0 0,0
16.01.2018 17:00:00 5,6 0,7 5,1 4,7 4,9 6,2 30 16 56 31 WSW 999,1 70 0 0,0
16.01.2018 16:00:00 5,8 1,9 5,3 5,1 4,8 6,2 30 16 55 30 SW 998,1 70 0 0,0
16.01.2018 15:00:00 6,1 1,8 5,5 5,4 4,7 6,2 33 18 61 33 WSW 998,2 70 8 0,0
16.01.2018 14:00:00 6,2 2,0 5,9 5,3 4,6 6,2 26 14 51 28 WSW 998,4 70 3 0,0
16.01.2018 13:00:00 6,1 1,6 5,3 5,1 4,5 6,2 22 12 52 28 W 998,5 70 22 0,0
16.01.2018 12:00:00 6,1 2,1 6,6 4,4 4,5 6,2 28 15 49 26 WSW 998,1 70 32 0,0
16.01.2018 11:00:00 4,5 2,0 3,7 4,3 4,4 6,2 26 14 57 31 WSW 997,7 70 0 2,3
16.01.2018 10:00:00 5,3 4,0 4,8 4,2 4,4 6,2 16 9 38 20 W 997,3 7 0 0,3
16.01.2018 09:00:00 4,9 3,0 4,0 4,1 4,4 6,2 23 13 46 25 WSW 997,3 70 0 0,5
16.01.2018 08:00:00 6,1 4,1 5,0 4,3 4,4 6,2 26 14 42 23 WSW 996,2 70 0 0,0
16.01.2018 07:00:00 6,0 4,6 5,2 4,3 4,3 6,2 23 12 50 27 WSW 996,2 70 0 0,9
16.01.2018 06:00:00 5,9 4,5 5,3 4,2 4,3 6,2 30 16 50 27 SW 996,5 70 0 0,3
16.01.2018 05:00:00 6,0 4,3 5,2 4,0 4,2 6,2 21 11 40 22 SW 997,2 70 0 0,0
16.01.2018 04:00:00 5,5 3,6 4,7 4,1 4,2 6,2 26 14 40 21 SW 998,1 70 0 0,4
16.01.2018 03:00:00 5,9 3,0 4,2 4,2 4,1 6,3 28 15 52 28 WSW 998,8 70 0 0,1
16.01.2018 02:00:00 6,3 4,0 5,4 4,2 4,1 6,3 19 10 46 25 WSW 999,2 70 0 0,0
16.01.2018 01:00:00 6,6 3,9 5,7 4,2 4,0 6,3 29 16 52 28 WSW 999,0 70 0 0,2
16.01.2018 00:00:00 6,3 5,7 5,9 4,2 3,9 6,3 30 16 61 33 SW 998,6 37 0 1,8
15.01.2018 23:00:00 6,3 5,0 5,7 3,8 3,8 6,3 42 23 69 37 SSW 998,4 - 0 0,3
15.01.2018 22:00:00 5,3 4,1 4,8 3,5 3,8 6,3 40 22 66 36 SSW 998,7 70 0 0,2
15.01.2018 21:00:00 4,1 2,9 3,7 3,4 3,7 6,4 41 22 64 34 SSW 1000,0 70 0 0,9
15.01.2018 20:00:00 3,9 2,4 3,4 3,4 3,7 6,4 44 24 69 38 SSW 1001,5 66 0 2,2
15.01.2018 19:00:00 4,6 3,0 3,9 3,5 3,6 6,4 44 24 70 38 SSW 1002,0 26 0 2,8
15.01.2018 18:00:00 4,8 3,2 4,1 3,5 3,5 6,4 45 24 61 33 SSW 1003,3 38 0 1,2
15.01.2018 17:00:00 5,6 2,4 4,5 3,4 3,4 6,5 41 22 60 33 S 1004,3 70 0 0,1
15.01.2018 16:00:00 5,3 2,8 4,3 3,4 3,3 6,5 33 18 66 36 SSW 1006,8 22 0 0,2
15.01.2018 15:00:00 6,0 1,6 5,5 3,3 3,2 6,5 42 23 62 34 S 1007,2 70 0 0,0
15.01.2018 14:00:00 5,5 1,9 5,1 2,7 3,0 6,5 38 21 53 29 SSW 1009,9 52 0 0,0
15.01.2018 13:00:00 4,8 1,8 4,4 2,1 3,0 6,5 29 15 50 27 SSW 1012,4 32 0 0,0
15.01.2018 12:00:00 4,6 1,8 3,9 0,9 3,0 6,5 34 19 49 27 SSW 1013,4 24 0 0,0
15.01.2018 11:00:00 2,6 1,1 2,2 0,7 3,0 6,6 9 5 17 9 WSW 1015,0 15 0 0,0
15.01.2018 10:00:00 1,6 0,3 1,2 0,7 3,1 6,6 11 6 18 10 WSW 1016,1 10 0 0,1
15.01.2018 09:00:00 0,9 -0,5 0,5 0,7 3,1 6,6 13 7 17 9 SW 1016,9 14 0 0,0
15.01.2018 08:00:00 0,3 -1,0 -0,1 0,7 3,2 6,6 7 4 13 7 SW 1017,5 13 0 0,0
15.01.2018 07:00:00 0,0 -1,3 -0,3 0,7 3,2 6,6 9 5 13 7 SW 1017,9 13 0 0,0
15.01.2018 06:00:00 -0,3 -1,8 -0,7 0,7 3,3 6,6 9 5 12 7 WSW 1018,3 14 0 0,0
15.01.2018 05:00:00 -0,9 -1,7 -2,0 0,7 3,3 6,7 4 2 6 3 WSW 1019,0 12 0 0,0
15.01.2018 04:00:00 -1,1 -1,6 -1,1 0,7 3,4 6,7 0 0 6 4 N 1019,7 8 0 0,0
15.01.2018 03:00:00 -1,4 -2,1 -1,3 0,7 3,5 6,7 5 3 9 5 NNW 1020,6 9 0 0,0
15.01.2018 02:00:00 -2,0 -2,6 -4,4 0,8 3,6 6,7 3 2 7 4 ENE 1020,9 8 0 0,0
15.01.2018 01:00:00 -1,7 -2,5 -4,4 0,9 3,7 6,7 0 0 4 2 N 1021,6 11 0 0,0
15.01.2018 00:00:00 -1,0 -2,2 -3,7 1,0 3,8 6,7 2 1 15 8 N 1022,0 14 0 0,0
14.01.2018 23:00:00 -0,6 -1,9 -3,3 1,1 3,9 6,7 7 4 13 7 NNE 1021,8 15 0 0,0
14.01.2018 22:00:00 -0,1 -1,7 -3,1 1,3 4,0 6,8 7 4 11 6 NNE 1022,1 21 0 0,0
14.01.2018 21:00:00 0,2 -1,5 -2,3 1,4 4,1 6,8 5 3 10 5 NNE 1022,0 15 0 0,0
14.01.2018 20:00:00 0,2 -1,8 -2,9 1,6 4,2 6,8 2 1 8 4 NNE 1021,9 20 0 0,0
14.01.2018 19:00:00 1,0 -1,5 -2,8 1,8 4,3 6,8 6 3 10 5 E 1021,7 27 0 0,0
14.01.2018 18:00:00 1,5 -1,2 -2,1 2,6 4,3 6,8 5 3 13 7 ESE 1021,6 29 0 0,0
14.01.2018 17:00:00 2,3 -1,0 0,4 3,7 4,2 6,8 10 6 19 10 SE 1021,3 26 41 0,0
14.01.2018 16:00:00 4,0 -0,4 3,7 4,5 4,1 6,9 13 7 19 11 S 1020,9 31 60 0,0
14.01.2018 15:00:00 5,0 -0,1 5,8 4,7 3,9 6,9 15 8 20 11 SE 1020,6 34 31 0,0
14.01.2018 14:00:00 4,6 0,0 5,2 3,5 3,7 6,9 10 5 13 7 ENE 1020,6 35 0 0,0
14.01.2018 13:00:00 4,4 -0,1 4,2 2,2 3,7 6,9 4 2 16 9 E 1021,0 34 23 0,0
14.01.2018 12:00:00 3,8 -0,2 4,3 1,1 3,8 6,9 9 5 12 7 NE 1021,4 26 50 0,0
14.01.2018 11:00:00 2,7 -0,3 1,9 1,0 3,8 6,9 6 3 11 6 ENE 1021,8 24 47 0,0
14.01.2018 10:00:00 0,8 -0,5 -0,5 1,0 3,9 6,9 8 5 13 7 NNE 1021,7 15 6 0,0
14.01.2018 09:00:00 0,0 -1,1 -1,5 1,0 4,0 6,9 9 5 15 8 NNE 1021,5 16 0 0,0
14.01.2018 08:00:00 0,5 -0,8 -0,8 1,1 4,1 6,9 10 5 14 8 NE 1021,0 17 0 0,0
14.01.2018 07:00:00 -0,2 -1,3 -3,3 1,1 4,2 7,0 9 5 14 8 NNE 1021,0 18 0 0,0
14.01.2018 06:00:00 -0,2 -1,3 -3,1 1,3 4,4 7,0 9 5 11 6 NE 1020,8 19 0 0,0
14.01.2018 05:00:00 0,3 -1,0 -3,3 1,4 4,5 7,0 7 4 10 5 NE 1020,9 18 0 0,0
14.01.2018 04:00:00 0,6 -1,2 -3,0 1,5 4,7 7,0 8 4 15 8 NE 1020,7 23 0 0,0
14.01.2018 03:00:00 1,7 -0,8 -0,3 1,5 4,8 7,0 11 6 16 9 NE 1020,7 26 0 0,0
14.01.2018 02:00:00 1,8 -0,9 -1,3 1,6 5,0 7,0 8 5 16 9 ENE 1020,8 28 0 0,0
14.01.2018 01:00:00 2,5 -0,6 -0,3 2,1 5,1 7,0 10 5 19 10 ENE 1021,0 32 0 0,0
14.01.2018 00:00:00 2,9 -0,6 0,2 2,6 5,3 7,0 8 4 23 13 E 1021,2 32 0 0,0
13.01.2018 23:00:00 3,4 -0,4 0,9 3,3 5,4 7,0 13 7 22 12 E 1021,3 35 0 0,0
13.01.2018 22:00:00 4,3 -0,1 3,0 4,1 5,4 7,0 10 5 27 15 E 1021,5 40 0 0,0
13.01.2018 21:00:00 4,5 0,1 4,1 4,2 5,4 7,0 10 6 34 18 E 1021,7 43 0 0,0
13.01.2018 20:00:00 4,6 -0,1 4,3 4,3 5,5 7,0 13 7 37 20 E 1022,0 50 0 0,0
13.01.2018 19:00:00 4,6 -0,2 4,3 4,4 5,5 7,0 18 10 40 22 ESE 1022,0 50 0 0,0
13.01.2018 18:00:00 4,6 0,2 4,2 4,5 5,5 7,0 11 6 30 16 E 1022,4 49 0 0,0
13.01.2018 17:00:00 4,5 0,2 4,3 4,8 5,5 7,0 14 8 35 19 ESE 1022,6 45 0 0,0
13.01.2018 16:00:00 4,6 0,0 4,5 5,1 5,5 7,0 18 10 32 18 ESE 1022,6 48 0 0,0
13.01.2018 15:00:00 4,7 0,0 4,8 5,4 5,4 7,1 14 8 24 13 ENE 1023,1 55 0 0,0
13.01.2018 14:00:00 4,7 -0,3 5,2 5,3 5,3 7,1 13 7 23 12 NE 1023,9 50 0 0,0
13.01.2018 13:00:00 4,1 -0,2 4,6 4,8 5,3 7,1 11 6 32 18 E 1025,0 42 0 0,0
13.01.2018 12:00:00 3,7 0,0 3,9 4,4 5,3 7,1 9 5 19 11 E 1025,9 36 0 0,0
13.01.2018 11:00:00 3,5 -0,1 3,7 4,1 5,3 7,1 10 5 28 15 E 1025,8 29 0 0,0
13.01.2018 10:00:00 3,2 0,0 3,2 3,9 5,4 7,1 6 4 27 14 E 1025,6 27 0 0,0
13.01.2018 09:00:00 2,9 0,2 2,7 3,9 5,4 7,1 7 4 22 12 E 1025,7 26 0 0,0
13.01.2018 08:00:00 2,8 0,2 2,8 4,0 5,5 7,1 14 7 24 13 ESE 1025,5 23 0 0,0
13.01.2018 07:00:00 3,2 0,5 3,1 4,0 5,5 7,1 12 6 22 12 ESE 1025,6 25 0 0,0
13.01.2018 06:00:00 3,6 1,0 3,3 4,1 5,6 7,1 10 6 19 10 ESE 1025,5 25 0 0,0
13.01.2018 05:00:00 3,6 1,7 3,1 4,1 5,6 7,1 6 3 10 5 ESE 1025,7 19 0 0,0
13.01.2018 04:00:00 3,5 2,7 3,1 4,0 5,7 7,1 0 0 7 4 N 1025,9 10 0 0,0
13.01.2018 03:00:00 3,1 1,8 2,5 3,8 5,8 7,1 5 3 7 4 ESE 1026,3 20 0 0,0
13.01.2018 02:00:00 3,6 3,0 2,2 4,0 5,9 7,1 5 3 7 4 E 1026,4 7 0 0,0
13.01.2018 01:00:00 3,5 2,6 2,1 4,2 6,0 7,1 5 3 8 4 NE 1026,7 8 0 0,0
13.01.2018 00:00:00 4,3 2,3 1,9 4,8 6,0 7,1 5 3 18 10 E 1026,8 25 0 0,0
12.01.2018 23:00:00 4,9 3,9 4,7 4,9 6,1 7,1 10 5 13 7 NE 1026,8 8 0 0,0
12.01.2018 22:00:00 5,0 3,9 4,6 5,0 6,1 7,1 10 5 15 8 ENE 1026,7 10 0 0,0
12.01.2018 21:00:00 5,0 3,9 4,6 5,1 6,2 7,1 11 6 19 10 NE 1026,3 8 0 0,0
12.01.2018 20:00:00 5,1 3,8 4,4 5,3 6,2 7,1 8 4 20 11 NE 1026,2 10 0 0,0
12.01.2018 19:00:00 5,6 3,8 5,1 5,5 6,3 7,1 14 7 20 11 NE 1026,1 12 0 0,0
12.01.2018 18:00:00 5,6 4,0 5,1 5,8 6,3 7,1 10 5 17 9 NE 1026,1 12 0 0,0
12.01.2018 17:00:00 5,9 4,1 5,4 6,2 6,2 7,1 8 5 19 11 ENE 1026,0 15 0 0,0
12.01.2018 16:00:00 6,2 4,2 6,1 6,5 6,2 7,1 12 6 18 10 NNE 1025,8 14 0 0,0
12.01.2018 15:00:00 6,3 4,3 6,4 6,6 6,1 7,1 11 6 18 10 NE 1025,6 13 0 0,0
12.01.2018 14:00:00 6,5 4,7 6,3 6,4 6,0 7,1 6 3 15 8 NNE 1025,5 14 0 0,0
12.01.2018 13:00:00 6,2 4,3 6,2 6,0 6,0 7,1 9 5 14 8 NNE 1025,8 13 0 0,0
12.01.2018 12:00:00 5,8 4,3 5,8 5,7 6,0 7,1 7 4 12 6 NE 1026,2 14 0 0,0
12.01.2018 11:00:00 5,6 4,5 5,5 5,3 6,0 7,1 6 4 12 7 NNE 1026,3 15 0 0,0
12.01.2018 10:00:00 5,2 4,2 4,8 5,0 6,0 7,1 6 3 10 6 N 1025,8 14 0 0,0
12.01.2018 09:00:00 5,0 4,2 4,6 4,9 6,1 7,1 7 4 11 6 NNE 1025,3 14 0 0,0
12.01.2018 08:00:00 5,1 4,1 4,4 4,9 6,1 7,0 7 4 10 6 N 1025,0 15 0 0,0
12.01.2018 07:00:00 4,8 3,8 3,6 4,9 6,2 7,0 8 4 13 7 NE 1024,5 16 0 0,0

tt = temperature
td = dewpoint
tt 5cm = temperature 5cm
tt -5cm = temperature -5cm
tt -20cm = temperature -20cm
tt -100cm = temperature -100cm
ff = wind speed
fx = gusts
dd = wind direction
ppp = reduced air pressure
vv = visibility
sd = sunshine duration
rr = precipitation

Next stations